Kalaeloa (John Rodgers Field) Airport Kapolei US
ICAO: PHJR
IATA:
Category: Medium
Scheduled Services:

Elevation: 30 ft
TransAlt. 18000 ft.

Airport Communications:
HONOLULU APP/DEP:118.3
ATIS:119.8
CLNC DEL:121.7
CTAF:132.6
GND:123.8
TWR:132.6

PHJR Zoom In..

If you have problems with the map follow the link
https://www.worldairports.se/pages/airport.php?
ICAO=PHJR

Runways:

(A) RW 04L length 4500 ft width 200 ft
---- / hdg 44

(B) RW 04R length 8000 ft width 200 ft
---- / hdg 44

(C) RW 11 length 6000 ft width 200 ft
---- / hdg 108

(D) RW 22L length 8000 ft width 200 ft
---- / hdg 224

(E) RW 22R length 4500 ft width 200 ft
---- / hdg 224

(F) RW 29 length 6000 ft width 200 ft
---- / hdg 288

Location; PHJR
Day. 24 / Time. 10.53 Zulu
* Altimeter: 30.14
* Temperature: 21° c. 69.8°f.
* Wind from: 060° Speed 03 kn.
Dewpoint: 16° c.
Visibility: 10 Statute Miles.
Clouds: Clear (automated report).

PHJR 241053Z AUTO 06003KT 10SM CLR 21/16 A3014 RMK AO2 SLP213 T02110161 TSNO


Wind From 060°
Speed 03 kn.

 
 
jpsmedia.com for Web Design worldairports.se 2019   terms of use